O3b星座 FM9星 (O3B FM9)

导读

O3B FM9是由O3B发射的中地球轨道卫星,于2014年12月18日08:00发射入轨,属于O3b(其他3亿)星座组网卫星,主要为世界各地电信运营商提供互联网骨干连接服务,覆盖赤道附近新兴市场区域,提供高速、低延迟的宽带通信服务,填补偏远地区的通信覆盖空白。

基本信息
目录编号:
40351
目录名称:
O3B FM9
国际标识:
2014-083D
轨道中心:
EARTH
卫星名称:
O3b星座 FM9星
卫星全名:
O3b星座 FM9星 (O3B FM9)
卫星状态:
在轨 (已飞行4203 天)
发射日期:
2014-12-18 UTC
国别 :
(O3B)
星等 :
--
轨道信息
数据来源 国际轨道数据 AOE轨道数据
星历时间 2026-06-20T13:22:55+0800
1天前
查看轨道信息
2026-06-17T13:00:00+0800
4天前
查看轨道信息
半长轴 14444.02km 14444.028km
偏心率 0.0002706 0.0002495
轨道倾角 0.056° 0.056°
近地点辐角 93.830° 88.606°
升交点赤经 353.427° 354.371°
平近点角 272.772° 245.426°
近地点 8061.974km 8062.287km
远地点 8069.792km 8069.495km
周期 287.933分钟 287.933分钟
每日圈数 5.001159 5.001155
详细信息
平衡模式:
三轴稳定
覆盖范围:
全球
运营商:
欧洲卫星公司
运营商所在国:
卢森堡
制造商(研发单位):
阿莱尼亚宇航公司
制造商所在国:
意大利
使用方式:
暂无
卫星简介
O3b卫星星座分为O3b FM卫星星座和O3b mPOWER卫星星座,前者是由阿莱尼亚宇航公司制造的第一代O3b卫星星座,后者是由波音公司制造的第二代O3b卫星星座。O3b卫星初始星座运行于赤道圆轨道,轨道高度8062公里,能够覆盖全球南北纬45°之间所有地方,在南、北纬45°~62°范围内也能提供一定的服务。该卫星仍在工作。
2D轨道图
3D轨道图
轨道高度分析图
轨道倾角分析图
轨道综合分析图
查看轨道综合分析图